Durango, CO

6:59 AM MDT on August 23, 2017 (GMT -0600)
Durango-La Plata County

Weather History for KDRO - May, 2013

Change the Weather History Date:

Wednesday, May 1, 2013

  Actual Average Record
Temperature  
Mean Temperature 52 °F 49 °F  
Max Temperature 66 °F 65 °F 78 °F (1981)
Min Temperature 37 °F 32 °F 21 °F (2003)
Degree Days  
Heating Degree Days 13 16  
Month to date heating degree days 13 16  
Since 1 July heating degree days 6753 6652  
Cooling Degree Days 0 0  
Month to date cooling degree days 0 0  
Year to date cooling degree days 0 0  
Growing Degree Days 2 (Base 50)    
Moisture  
Dew Point 8 °F    
Average Humidity 20    
Maximum Humidity 33    
Minimum Humidity 7    
Precipitation  
Precipitation 0.00 in 0.05 in 0.78 in (1990)
Month to date precipitation 0.00 0.05  
Year to date precipitation 3.28 4.68  
Sea Level Pressure  
Sea Level Pressure 29.87 in    
Wind  
Wind Speed 13 mph (West)    
Max Wind Speed 30 mph    
Max Gust Speed 38 mph    
Visibility 10 miles    
Events      
T = Trace of Precipitation, MM = Missing Value Source: NWS Daily Summary

Daily Weather History Graph

Daily Weather History Graph

Search for Another Location

Airport or City:

Trip Planner

Search our weather history database for the weather conditions in past years. The results will help you decide how hot, cold, wet, or windy it might be!

Date:

Astronomy

May. 01, 2013 Rise Set
Actual Time 6:16 AM MDT 8:00 PM MDT
Civil Twilight 5:48 AM MDT 8:28 PM MDT
Nautical Twilight 5:14 AM MDT 9:02 PM MDT
Astronomical Twilight 4:38 AM MDT 9:38 PM MDT
Moon 1:11 AM MDT (5/1) 11:57 AM MDT (5/1)
Length of Visible Light 14h 40m
Length of Day
13h 44m
Waning Gibbous, 58% of the Moon is Illuminated
May 1
Waning Gibbous
May 2
Last Quarter
May 9
New
May 17
First Quarter
May 24
Full

Hourly Weather History & Observations

Time (MDT) Temp. Windchill Dew Point Humidity Pressure Visibility Wind Dir Wind Speed Gust Speed Precip Events Conditions
12:53 AM 57.9 °F - 10.9 °F 16% 29.62 in 10.0 mi SW 12.7 mph - N/A   Clear
1:53 AM 54.0 °F - 12.9 °F 20% 29.64 in 10.0 mi West 5.8 mph - N/A   Clear
2:53 AM 53.1 °F - 12.9 °F 20% 29.65 in 10.0 mi WSW 6.9 mph - N/A   Clear
3:53 AM 48.9 °F - 12.9 °F 24% 29.68 in 10.0 mi SW 5.8 mph - N/A   Clear
4:53 AM 50.0 °F - 14.0 °F 24% 29.70 in 10.0 mi SSW 8.1 mph - N/A   Partly Cloudy
5:53 AM 48.9 °F - 16.0 °F 27% 29.73 in 10.0 mi West 4.6 mph - N/A   Partly Cloudy
6:53 AM 45.0 °F - 17.1 °F 33% 29.78 in 10.0 mi Calm Calm - N/A   Clear
7:53 AM 50.0 °F - 21.9 °F 33% 29.81 in 10.0 mi Calm Calm - N/A   Clear
9:53 AM 61.0 °F - 23.0 °F 23% 29.82 in 10.0 mi West 17.3 mph 25.3 mph N/A   Partly Cloudy
10:53 AM 62.1 °F - 21.9 °F 21% 29.82 in 10.0 mi WSW 20.7 mph 27.6 mph N/A   Partly Cloudy
11:53 AM 63.0 °F - 19.9 °F 19% 29.84 in 10.0 mi WSW 19.6 mph 28.8 mph N/A   Clear
12:53 PM 63.0 °F - 10.9 °F 13% 29.83 in 10.0 mi West 15.0 mph 25.3 mph N/A   Clear
1:53 PM 63.0 °F - 9.0 °F 12% 29.85 in 10.0 mi NW 16.1 mph 26.5 mph N/A   Clear
2:53 PM 62.1 °F - 14.0 °F 15% 29.88 in 10.0 mi West 16.1 mph 29.9 mph N/A   Clear
3:53 PM 62.1 °F - 14.0 °F 15% 29.89 in 10.0 mi WNW 18.4 mph 27.6 mph N/A   Clear
4:53 PM 60.1 °F - 1.9 °F 10% 29.93 in 10.0 mi West 23.0 mph 32.2 mph N/A   Clear
5:53 PM 57.0 °F - -7.1 °F 7% 29.97 in 10.0 mi WNW 21.9 mph 34.5 mph N/A   Clear
6:53 PM 54.0 °F - -9.0 °F 7% 30.01 in 10.0 mi WNW 23.0 mph 38.0 mph N/A   Clear
7:53 PM 48.9 °F - -9.9 °F 8% 30.05 in 10.0 mi WNW 19.6 mph 31.1 mph N/A   Clear
8:53 PM 45.0 °F 36.9 °F -9.9 °F 10% 30.06 in 10.0 mi NW 20.7 mph 28.8 mph N/A   Clear
9:53 PM 44.1 °F 39.5 °F -9.0 °F 11% 30.10 in 10.0 mi NW 8.1 mph - N/A   Clear
10:53 PM 42.1 °F 34.9 °F -2.9 °F 15% 30.14 in 10.0 mi NNW 13.8 mph - N/A   Clear
11:53 PM 41.0 °F 33.1 °F 5.0 °F 23% 30.16 in 10.0 mi NNW 15.0 mph - N/A   Clear